Location: Çayiçi
(36.4667°N, 30.2333°E)
Time: 01:45:50
(UTC+00:00)

CZ-4 R/B - Pass Details

Date: 09 February 2023
Orbit: 526 x 586 km, 97.7° (Epoch: 01 April)

Event Time Altitude Azimuth Distance (km) Brightness Sun altitude
Rises 16:13:38 0° 131° (SE) 2,785 4.5 -8.7°
Reaches altitude 10° 16:16:20 10° 112° (ESE) 1,881 3.5 -9.2°
Maximum altitude 16:19:06 18° 69° (ENE) 1,430 2.8 -9.8°
Drops below altitude 10° 16:21:51 10° 26° (NNE) 1,866 3.7 -10.3°
Sets 16:24:30 0° 7° (N) 2,753 4.7 -10.8°
